Regional Weather Roundup
Issued by NWS

Home | Current Version | Previous Version | Graphics & Text | Print | Product List | Glossary On
Versions: 1 2 3 4 5 6 7 8 9 10 11 12 13 14 15 16 17 18 19 20 21 22 23 24 25 26 27 28 29 30 31 32 33 34 35 36 37 38 39 40 41 42 43 44 45 46 47 48 49 50
000
ASUS43 KDMX 190401
RWRIA

WEATHER ROUNDUP FOR IOWA
NATIONAL WEATHER SERVICE DES MOINES IA
1000 PM CST WED JAN 18 2017

NOTE: "FAIR" INDICATES FEW OR NO CLOUDS BELOW 12,000 FEET WITH NO
SIGNIFICANT WEATHER AND/OR OBSTRUCTIONS TO VISIBILITY.

* - THESE STATIONS ARE NOT NWS STATIONS...THUS NOT UNDER NWS
QUALITY CONTROL.  THEY ALSO DO NOT REPORT WEATHER SUCH
AS PRECIPITATION OR FOG.

IAZ001>003-012>014-020>022-031>034-043>046-190500-
   NORTHWEST IOWA

CITY           SKY/WX    TMP DP  RH WIND       PRES   REMARKS
CARROLL *      CLEAR     36  36 100 S9        29.89S WCI  29
CHEROKEE *     CLEAR     37  36  96 S13       29.84F WCI  29
DENISON *      CLEAR     37  36  93 S7        29.87F WCI  32
LE MARS *      CLEAR     37  36  93 S8        29.83S WCI  31
ORANGE CITY *  CLEAR     37  36  93 S9        29.81S WCI  31
SHELDON *      CLEAR     37  37 100 S13       29.80S WCI  29
SIOUX CITY     CLEAR     37  34  89 SE10      29.83F WCI  30
SPENCER        CLEAR     35  34  96 S8        29.83S WCI  29
STORM LAKE *   CLEAR     36  34  93 S13       29.85S WCI  27
$$

IAZ055>058-069>071-079>083-090>094-190500-
   SOUTHWEST IOWA

CITY           SKY/WX    TMP DP  RH WIND       PRES   REMARKS
ATLANTIC *       N/A     37  36  93 S10       29.92S WCI  30
AUDUBON *      CLEAR     37  34  87 S5        29.91F WCI  34
CLARINDA *     CLEAR     36  36 100 S5        29.95F WCI  32
COUNCIL BLFS * CLEAR     36  36 100 S14       29.89S WCI  27
CRESTON *      FOG       36  36 100 S13       29.95F VSB<1/4 WCI  27
HARLAN  *      CLEAR     37  37 100 S9        29.94S WCI  31
LAMONI         FOG       36  35  96 S7        29.96F VSB 1/4 WCI  30
RED OAK *      CLEAR     37  36  93 S10       29.92F WCI  30
SHENANDOAH *   CLEAR     37  36  93 S12       29.93S WCI  30
$$

IAZ047>049-059>061-072>074-084-190500-
   CENTRAL IOWA

CITY           SKY/WX    TMP DP  RH WIND       PRES   REMARKS
AMES           CLEAR     33  33 100 S9        29.94S WCI  25
ANKENY *       FOG       34  32  93 S10       29.97S VSB 1/2 WCI  26
BOONE *        CLEAR     34  34 100 S10       29.91F WCI  26
CHARITON *     FOG       34  34 100 S10       29.97F VSB 1/4 WCI  26
DES MOINES     FOG       35  34  96 S10       29.96S VSB 1/2 WCI  27
GRINNELL*      CLEAR     33  32  96 S10       29.98S WCI  25
KNOXVILLE *    FOG       34  34 100 S9G16     29.96F VSB 1/2 WCI  26
MARSHALLTOWN   CLEAR     34  33  96 SE7       29.94F WCI  28
NEWTON *       FOG       34  32  93 S12       29.96F VSB<1/4 WCI  25
PELLA *        CLOUDY    34  33  96 S13       29.99F FOG     WCI  25
PERRY *          N/A     34  34 100 SE9       29.93S FOG     WCI  26
$$

IAZ004>006-015-016-023>025-035-036-190500-
   NORTH CENTRAL IOWA

CITY           SKY/WX    TMP DP  RH WIND       PRES   REMARKS
ALGONA *       CLEAR     36  36 100 S16       29.86F WCI  26
CLARION *      CLEAR     34  34 100 S15       29.89F WCI  24
ESTHERVILLE    CLEAR     33  33 100 S10       29.83S WCI  25
FORT DODGE *   CLEAR     36  32  87 S10G16    29.90F WCI  28
MASON CITY     CLEAR     32  30  92 S7        29.90S WCI  26
FOREST CITY *    N/A     32  32 100 SE7       29.89S WCI  26
WEBSTER CITY * CLEAR     34  34 100 S10       29.89F WCI  26
IOWA FALLS *     N/A     35  33  93 SE6       29.93S WCI  30
$$

IAZ007>011-017>019-026>030-037>042-050>054-066-190500-
   NORTHEAST IOWA

CITY           SKY/WX    TMP DP  RH WIND       PRES   REMARKS
CEDAR RAPIDS   CLEAR     32  32 100 S5        29.98F FOG     WCI  27
CHARLES CITY * MOCLDY    34  34 100 S13       29.92F WCI  25
CLINTON *      CLEAR     31  30  96 S6        30.02F FOG     WCI  25
DECORAH *      PTCLDY    34  34 100 S6        29.93S FOG     WCI  29
DUBUQUE        CLEAR     32  31  96 S12       29.98S FOG     WCI  23
MONTICELLO *   CLEAR     34  32  93 S6        29.99S FOG     WCI  29
OELWEIN *      PTCLDY    34  34 100 S12       29.95F FOG     WCI  25
WATERLOO       CLEAR     34  32  92 S10       29.95S WCI  26
$$

IAZ064-065-067-068-078-190500-
   EAST CENTRAL IOWA

CITY           SKY/WX    TMP DP  RH WIND       PRES   REMARKS
DAVENPORT      CLEAR     32  31  96 S8        30.02F FOG     WCI  25
IOWA CITY      CLEAR     30  29  96 S3        30.02F FOG
MUSCATINE *    FOG       30  28  93 SW5       30.03F VSB 1/4 WCI  25
QUAD CITIES    CLEAR     29  27  92 CALM      30.03S FOG
$$

IAZ062-063-075>077-085>089-095>099-190500-
   SOUTHEAST IOWA

CITY           SKY/WX    TMP DP  RH WIND       PRES   REMARKS
BURLINGTON     CLEAR     33  33 100 S3        30.04R FOG
FAIRFIELD *    MOCLDY    34  34 100 S7        30.01F FOG     WCI  28
FORT MADISON * CLEAR     34  34 100 SE3       30.04S
KEOKUK *       CLEAR     34  34 100 SE5       30.03S FOG     WCI  30
OSKALOOSA *    FOG       33  32  98 S10       30.01S VSB 1/2 WCI  24
OTTUMWA        FOG       34  32  92 S9        30.00S VSB 1/2 WCI  27
WASHINGTON *   CLOUDY    32  32 100 S8        30.03R FOG     WCI  25
$$

ABBREVIATIONS USED IN REMARKS
   TC - TEMPERATURES IN CELSIUS
  WCI - WIND CHILL INDEX
   HX - HEAT INDEX
  VSB - VISIBILITY
$$





USA.gov is the U.S. government's official web portal to all federal, state and local government web resources and services.